Time,TemperatureF,DewpointF,PressureIn,WindDirection,WindDirectionDegrees,WindSpeedMPH,WindSpeedGustMPH,Humidity,HourlyPrecipIn,Conditions,Clouds,dailyrainin,SolarRadiationWatts/m^2,SoftwareType,DateUTC
2017-04-30 00:13:00,72.7,68.0,30.11,SSW,210,1.0,7.0,84,0.00,,,0.00,0,weatherlink.com 1.10,2017-04-30 04:13:00,
2017-04-30 00:28:00,72.3,68.0,30.12,SW,230,8.0,8.0,85,0.00,,,0.00,0,weatherlink.com 1.10,2017-04-30 04:28:00,
2017-04-30 00:43:00,72.0,67.0,30.12,SW,228,2.0,8.0,85,0.00,,,0.00,0,weatherlink.com 1.10,2017-04-30 04:43:00,
2017-04-30 00:58:00,71.7,67.0,30.12,WSW,253,4.0,7.0,86,0.00,,,0.00,0,weatherlink.com 1.10,2017-04-30 04:58:00,
2017-04-30 01:13:00,71.3,67.0,30.12,WSW,247,1.0,11.0,86,0.00,,,0.00,0,weatherlink.com 1.10,2017-04-30 05:13:00,
2017-04-30 01:28:00,70.9,67.0,30.12,SSW,207,2.0,9.0,87,0.00,,,0.00,0,weatherlink.com 1.10,2017-04-30 05:28:00,
2017-04-30 01:43:00,70.7,67.0,30.12,West,280,3.0,10.0,87,0.00,,,0.00,0,weatherlink.com 1.10,2017-04-30 05:43:00,
2017-04-30 01:58:00,70.3,67.0,30.12,SW,214,4.0,8.0,88,0.00,,,0.00,0,weatherlink.com 1.10,2017-04-30 05:58:00,
2017-04-30 02:13:00,69.8,67.0,30.12,WSW,255,1.0,3.0,89,0.00,,,0.00,0,weatherlink.com 1.10,2017-04-30 06:13:00,
2017-04-30 02:28:00,69.8,67.0,30.12,West,260,3.0,10.0,90,0.00,,,0.00,0,weatherlink.com 1.10,2017-04-30 06:28:00,
2017-04-30 02:43:00,69.8,67.0,30.11,West,272,6.0,7.0,90,0.00,,,0.00,0,weatherlink.com 1.10,2017-04-30 06:43:00,
2017-04-30 02:58:00,70.1,67.0,30.11,West,268,1.0,11.0,89,0.00,,,0.00,0,weatherlink.com 1.10,2017-04-30 06:58:00,
2017-04-30 03:13:00,70.0,67.0,30.10,West,265,5.0,11.0,89,0.00,,,0.00,0,weatherlink.com 1.10,2017-04-30 07:13:00,
2017-04-30 03:28:00,70.0,66.0,30.10,NW,310,1.0,7.0,88,0.00,,,0.00,0,weatherlink.com 1.10,2017-04-30 07:28:00,
2017-04-30 03:43:00,69.5,66.0,30.10,West,262,3.0,6.0,89,0.00,,,0.00,0,weatherlink.com 1.10,2017-04-30 07:43:00,
2017-04-30 03:58:00,69.5,66.0,30.10,West,276,2.0,7.0,89,0.00,,,0.00,0,weatherlink.com 1.10,2017-04-30 07:58:00,
2017-04-30 04:13:00,69.5,66.0,30.10,West,277,3.0,9.0,89,0.00,,,0.00,0,weatherlink.com 1.10,2017-04-30 08:13:00,
2017-04-30 04:28:00,69.5,66.0,30.10,West,266,2.0,5.0,89,0.00,,,0.00,0,weatherlink.com 1.10,2017-04-30 08:28:00,
2017-04-30 04:43:00,69.3,66.0,30.10,SSW,207,0.0,4.0,89,0.00,,,0.00,0,weatherlink.com 1.10,2017-04-30 08:43:00,
2017-04-30 04:58:00,69.3,66.0,30.11,WSW,251,0.0,6.0,89,0.00,,,0.00,0,weatherlink.com 1.10,2017-04-30 08:58:00,
2017-04-30 05:13:00,69.2,66.0,30.11,West,260,1.0,8.0,89,0.00,,,0.00,0,weatherlink.com 1.10,2017-04-30 09:13:00,
2017-04-30 05:28:00,69.4,66.0,30.11,WSW,249,1.0,6.0,88,0.00,,,0.00,0,weatherlink.com 1.10,2017-04-30 09:28:00,
2017-04-30 05:43:00,69.8,66.0,30.11,West,261,3.0,10.0,88,0.00,,,0.00,0,weatherlink.com 1.10,2017-04-30 09:43:00,
2017-04-30 05:58:00,69.8,66.0,30.11,WSW,249,5.0,6.0,87,0.00,,,0.00,0,weatherlink.com 1.10,2017-04-30 09:58:00,
2017-04-30 06:13:00,69.9,66.0,30.12,WSW,255,5.0,7.0,87,0.00,,,0.00,0,weatherlink.com 1.10,2017-04-30 10:13:00,
2017-04-30 06:28:00,69.9,66.0,30.13,WSW,255,4.0,8.0,87,0.00,,,0.00,0,weatherlink.com 1.10,2017-04-30 10:28:00,
2017-04-30 06:43:00,69.9,66.0,30.14,West,265,5.0,8.0,87,0.00,,,0.00,0,weatherlink.com 1.10,2017-04-30 10:43:00,
2017-04-30 06:58:00,69.9,66.0,30.14,WSW,251,0.0,3.0,87,0.00,,,0.00,5,weatherlink.com 1.10,2017-04-30 10:58:00,
2017-04-30 07:13:00,70.0,66.0,30.15,WSW,239,1.0,4.0,87,0.00,,,0.00,11,weatherlink.com 1.10,2017-04-30 11:13:00,
2017-04-30 07:28:00,70.0,66.0,30.15,WSW,258,1.0,3.0,87,0.00,,,0.00,25,weatherlink.com 1.10,2017-04-30 11:28:00,
2017-04-30 07:43:00,70.3,67.0,30.14,West,264,0.0,3.0,88,0.00,,,0.00,46,weatherlink.com 1.10,2017-04-30 11:43:00,
2017-04-30 07:58:00,70.3,67.0,30.14,West,268,1.0,2.0,88,0.00,,,0.00,72,weatherlink.com 1.10,2017-04-30 11:58:00,
2017-04-30 08:13:00,71.5,67.0,30.14,West,274,4.0,5.0,86,0.00,,,0.00,93,weatherlink.com 1.10,2017-04-30 12:13:00,
2017-04-30 08:28:00,71.2,67.0,30.14,WSW,253,2.0,10.0,86,0.00,,,0.00,42,weatherlink.com 1.10,2017-04-30 12:28:00,
2017-04-30 08:43:00,71.2,67.0,30.14,WSW,243,1.0,8.0,86,0.00,,,0.00,62,weatherlink.com 1.10,2017-04-30 12:43:00,
2017-04-30 08:58:00,72.3,68.0,30.13,WSW,255,3.0,7.0,85,0.00,,,0.00,104,weatherlink.com 1.10,2017-04-30 12:58:00,